Tehachapi, CA

8:17 PM PDT on September 27, 2016 (GMT -0700)
Tehachapi Municipal

Weather History for KTSP - December, 2010

Change the Weather History Date:

Tuesday, December 28, 2010

  Actual Average Record
Temperature  
Mean Temperature 40 °F -  
Max Temperature 53 °F 49 °F 66 °F (2011)
Min Temperature 26 °F 30 °F 21 °F (2011)
Degree Days  
Heating Degree Days 26    
Moisture  
Dew Point 32 °F    
Average Humidity 79    
Maximum Humidity 100    
Minimum Humidity 30    
Precipitation  
Precipitation 0.07 in - - ()
Sea Level Pressure  
Sea Level Pressure 30.05 in    
Wind  
Wind Speed 4 mph ()    
Max Wind Speed 16 mph    
Max Gust Speed 24 mph    
Visibility 6.6 miles    
Events Fog , Rain    
Averages and records for this station are not official NWS values.
T = Trace of Precipitation, MM = Missing Value Source: Averaged Metar Reports

Daily Weather History Graph

Daily Weather History Graph

Search for Another Location

Airport or City:

Trip Planner

Search our weather history database for the weather conditions in past years. The results will help you decide how hot, cold, wet, or windy it might be!

Date:

Astronomy

Dec. 28, 2010 Rise Set
Actual Time 7:01 AM PST 4:49 PM PST
Civil Twilight 6:32 AM PST 5:17 PM PST
Nautical Twilight 6:01 AM PST 5:49 PM PST
Astronomical Twilight 5:30 AM PST 6:20 PM PST
Moon 12:14 AM PST 11:42 AM PST
Length of Visible Light 10h 45m
Length of Day
9h 48m
Last Quarter, 43% of the Moon is Illuminated
Dec 28
Last Quarter
Jan 4
New
Jan 12
First Quarter
Jan 19
Full
Jan 26
Last Quarter

Hourly Weather History & Observations

Time (PST) Temp. Windchill Dew Point Humidity Pressure Visibility Wind Dir Wind Speed Gust Speed Precip Events Conditions
12:35 AM 32.0 °F 28.7 °F 32.0 °F 100% 30.20 in 0.2 mi East 3.5 mph - N/A Fog Fog
12:55 AM 32.0 °F - 32.0 °F 100% 30.20 in 0.2 mi Calm Calm - N/A Fog Fog
1:15 AM 32.0 °F - 32.0 °F 100% 30.20 in 0.2 mi Calm Calm - N/A Fog Fog
1:35 AM 32.0 °F - 32.0 °F 100% 30.20 in 0.2 mi Calm Calm - N/A Fog Fog
1:55 AM 32.0 °F - 32.0 °F 100% 30.20 in 0.2 mi Calm Calm - N/A Fog Fog
2:15 AM 32.0 °F - 32.0 °F 100% 30.20 in 0.2 mi Calm Calm - N/A Fog Fog
2:55 AM 32.0 °F - 32.0 °F 100% 30.18 in 0.2 mi Calm Calm - N/A Fog Fog
3:15 AM 32.0 °F - 32.0 °F 100% 30.18 in 0.2 mi Calm Calm - N/A Fog Fog
3:35 AM 32.0 °F - 32.0 °F 100% 30.17 in 0.2 mi Calm Calm - N/A Fog Light Freezing Fog
3:55 AM 30.2 °F - 30.2 °F 100% 30.16 in 0.2 mi Calm Calm - N/A Fog Light Freezing Fog
4:15 AM 28.4 °F - 28.4 °F 100% 30.15 in 0.2 mi Calm Calm - N/A Fog Light Freezing Fog
4:35 AM 28.4 °F - 28.4 °F 100% 30.14 in 2.5 mi Calm Calm - N/A   Mostly Cloudy
5:15 AM 26.6 °F - 26.6 °F 100% 30.13 in 0.2 mi North - - N/A Fog Light Freezing Fog
5:35 AM 26.6 °F - 26.6 °F 100% 30.13 in 0.2 mi North - - N/A Fog Light Freezing Fog
5:55 AM 26.6 °F - 26.6 °F 100% 30.12 in 0.8 mi Calm Calm - N/A   Mostly Cloudy
6:15 AM 26.6 °F - 26.6 °F 100% 30.12 in 6.0 mi Calm Calm - N/A   Clear
6:35 AM 26.6 °F - 26.6 °F 100% 30.12 in 10.0 mi North - - N/A   Clear
7:15 AM 26.6 °F - 26.6 °F 100% 30.12 in 8.0 mi North - - N/A   Clear
7:35 AM 28.4 °F - 28.4 °F 100% 30.12 in 8.0 mi Calm Calm - N/A   Clear
7:55 AM 30.2 °F - 30.2 °F 100% 30.12 in 8.0 mi North - - N/A   Clear
8:15 AM 32.0 °F - 32.0 °F 100% 30.12 in 9.0 mi Calm Calm - N/A   Clear
8:35 AM 32.0 °F - 32.0 °F 100% 30.14 in 9.0 mi Calm Calm - N/A   Clear
8:55 AM 35.6 °F 30.7 °F 32.0 °F 87% 30.14 in 10.0 mi WNW 5.8 mph - N/A   Clear
9:15 AM 37.4 °F 34.9 °F 32.0 °F 81% 30.14 in 10.0 mi WNW 3.5 mph - N/A   Clear
9:35 AM 39.2 °F 32.5 °F 32.0 °F 75% 30.14 in 9.0 mi NW 10.4 mph - N/A   Clear
9:55 AM 39.2 °F 32.5 °F 35.6 °F 87% 30.14 in 9.0 mi WNW 10.4 mph - N/A   Clear
10:15 AM 41.0 °F 35.2 °F 35.6 °F 81% 30.13 in 8.0 mi WNW 9.2 mph - N/A   Clear
10:35 AM 41.0 °F 38.0 °F 35.6 °F 81% 30.12 in 9.0 mi WNW 4.6 mph - N/A   Clear
10:55 AM 44.6 °F - 32.0 °F 61% 30.10 in 9.0 mi Calm Calm - N/A   Clear
11:15 AM 46.4 °F 45.2 °F 30.2 °F 53% 30.10 in 8.0 mi West 3.5 mph - N/A   Clear
11:35 AM 48.2 °F - 35.6 °F 62% 30.08 in 7.0 mi NW 9.2 mph - N/A   Clear
11:55 AM 46.4 °F 42.9 °F 37.4 °F 71% 30.07 in 8.0 mi WNW 6.9 mph - N/A   Clear
12:15 PM 48.2 °F - 37.4 °F 66% 30.06 in 8.0 mi WNW 8.1 mph - N/A   Clear
12:35 PM 48.2 °F - 37.4 °F 66% 30.04 in 9.0 mi NW 10.4 mph - N/A   Clear
12:55 PM 48.2 °F - 37.4 °F 66% 30.03 in 7.0 mi WNW 9.2 mph - N/A   Clear
1:15 PM 50.0 °F - 37.4 °F 62% 30.02 in 8.0 mi NW 10.4 mph - N/A   Clear
1:35 PM 50.0 °F - 37.4 °F 62% 30.01 in 8.0 mi NW 9.2 mph - N/A   Clear
1:55 PM 51.8 °F - 35.6 °F 54% 30.00 in 10.0 mi NW 9.2 mph - N/A   Clear
2:15 PM 53.6 °F - 28.4 °F 38% 29.99 in 10.0 mi West 11.5 mph - N/A   Clear
2:35 PM 53.6 °F - 23.0 °F 30% 29.98 in 10.0 mi West 13.8 mph - N/A   Clear
2:55 PM 53.6 °F - 23.0 °F 30% 29.98 in 9.0 mi West 13.8 mph - N/A   Clear
3:15 PM 53.6 °F - 23.0 °F 30% 29.98 in 10.0 mi West 12.7 mph - N/A   Clear
3:35 PM 51.8 °F - 37.4 °F 58% 29.98 in 10.0 mi WNW 8.1 mph - N/A   Clear
3:55 PM 50.0 °F - 26.6 °F 40% 29.99 in 10.0 mi West 9.2 mph - N/A   Clear
4:15 PM 44.6 °F 40.2 °F 39.2 °F 81% 29.98 in 7.0 mi WNW 8.1 mph - N/A   Partly Cloudy
4:35 PM 41.0 °F 37.1 °F 39.2 °F 93% 29.98 in 5.0 mi West 5.8 mph - N/A   Partly Cloudy
4:55 PM 42.8 °F 37.5 °F 37.4 °F 81% 29.97 in 8.0 mi WSW 9.2 mph - N/A   Scattered Clouds
5:15 PM 46.4 °F 41.5 °F 24.8 °F 43% 29.96 in 10.0 mi WSW 10.4 mph - N/A   Mostly Cloudy
5:35 PM 46.4 °F 41.5 °F 23.0 °F 40% 29.97 in 10.0 mi WSW 10.4 mph - N/A   Mostly Cloudy
6:15 PM 41.0 °F 35.2 °F 37.4 °F 87% 29.96 in 10.0 mi NW 9.2 mph - N/A   Overcast
6:35 PM 41.0 °F 34.7 °F 35.6 °F 81% 29.96 in 10.0 mi NW 10.4 mph - N/A   Overcast
6:55 PM 39.2 °F 34.2 °F 37.4 °F 93% 29.96 in 0.5 mi NW 6.9 mph - N/A Fog Fog
7:15 PM 39.2 °F 35.9 °F 37.4 °F 93% 29.95 in 4.0 mi WNW 4.6 mph - N/A   Overcast
7:35 PM 39.2 °F 37.0 °F 37.4 °F 93% 29.94 in 5.0 mi NW 3.5 mph - N/A   Mostly Cloudy
8:15 PM 39.2 °F 33.0 °F 32.0 °F 75% 29.93 in 10.0 mi NW 9.2 mph - N/A   Scattered Clouds
8:35 PM 41.0 °F 35.8 °F 32.0 °F 70% 29.92 in 10.0 mi NW 8.1 mph - N/A   Clear
8:55 PM 41.0 °F 34.7 °F 32.0 °F 70% 29.92 in 9.0 mi WNW 10.4 mph - N/A Rain Light Rain
9:15 PM 41.0 °F 34.7 °F 32.0 °F 70% 29.91 in 10.0 mi WNW 10.4 mph - N/A   Scattered Clouds
9:35 PM 41.0 °F 34.7 °F 33.8 °F 76% 29.90 in 10.0 mi West 10.4 mph - N/A Rain Light Rain
9:55 PM 41.0 °F 35.2 °F 33.8 °F 76% 29.89 in 10.0 mi West 9.2 mph - N/A Rain Light Rain
10:15 PM 41.0 °F 33.9 °F 33.8 °F 76% 29.88 in 10.0 mi WNW 12.7 mph - N/A   Partly Cloudy
10:35 PM 41.0 °F 33.9 °F 32.0 °F 70% 29.88 in 9.0 mi West 12.7 mph - N/A Rain Light Rain
10:55 PM 41.0 °F 33.5 °F 32.0 °F 70% 29.87 in 9.0 mi West 13.8 mph 17.3 mph N/A Rain Light Rain
11:15 PM 41.0 °F 33.5 °F 32.0 °F 70% 29.87 in 10.0 mi West 13.8 mph 18.4 mph N/A Rain Light Rain
11:35 PM 39.2 °F 30.5 °F 32.0 °F 75% 29.88 in 7.0 mi WNW 16.1 mph 24.2 mph 0.01 in Rain Light Rain
11:55 PM 39.2 °F 32.0 °F 35.6 °F 87% 29.86 in 4.0 mi WSW 11.5 mph - 0.07 in Rain Rain